Location: Marseilles
(40.7010°N, 83.3930°W)
Time: 23:14:01
(UTC-04:00)

Cosmos 1459 Rocket - Visible Passes

Search period start: 29 September 2016 00:00
Search period end: 09 October 2016 00:00
Orbit: 939 x 999 km, 83.0° (Epoch: 29 September)

Date Brightness Start Highest point End Pass type
(mag) Time Alt. Az. Time Alt. Az. Time Alt. Az.
29 Sep 4.8 04:59:35 10° N 05:05:48 52° ENE 05:11:55 10° SSE visible
29 Sep 5.0 06:45:43 10° NNW 06:50:34 24° W 06:55:22 10° SW visible
29 Sep 7.3 20:18:44 10° WNW 20:20:02 11° WNW 20:21:20 10° NW visible
30 Sep 6.7 03:40:06 10° NE 03:43:07 14° ENE 03:46:07 10° E visible
30 Sep 4.0 05:22:53 10° N 05:29:18 89° E 05:35:35 10° S visible
01 Oct 6.0 04:02:03 10° NNE 04:07:03 24° ENE 04:11:58 10° ESE visible
01 Oct 4.1 05:46:28 10° NNW 05:52:38 53° W 05:58:41 10° SSW visible
02 Oct 5.2 04:24:49 10° N 04:30:46 40° ENE 04:36:38 10° SE visible
02 Oct 4.7 06:10:23 10° NNW 06:15:48 30° W 06:21:09 10° SW visible
02 Oct 6.9 19:41:31 10° W 19:44:47 14° WNW 19:48:05 10° NNW visible
03 Oct 4.2 04:47:59 10° N 04:54:21 70° E 05:00:35 10° SSE visible
03 Oct 5.3 06:34:55 10° NW 06:38:49 17° W 06:42:41 10° WSW visible
04 Oct 6.3 03:27:39 10° NNE 03:31:53 18° ENE 03:34:50 14° E visible
04 Oct 3.9 05:11:26 10° NNW 05:17:45 69° W 05:19:08 53° SSW visible
05 Oct 5.5 03:50:08 10° NNE 03:55:43 31° ENE 03:55:47 31° ENE visible
05 Oct 4.5 05:35:10 10° NNW 05:40:10 38° WNW 05:40:10 38° WNW visible
06 Oct 5.0 04:13:08 10° N 04:17:31 41° NNE 04:17:31 41° NNE visible
06 Oct 5.4 05:59:21 10° NW 06:01:57 19° NW 06:01:57 19° NW visible
06 Oct 7.2 19:32:39 10° WNW 19:33:36 10° WNW 19:34:33 10° NW visible
07 Oct 6.6 02:53:34 10° NE 02:55:11 13° NE 02:55:11 13° NE visible
07 Oct 5.2 04:36:27 10° N 04:39:38 32° N 04:39:38 32° N visible
08 Oct 6.3 03:15:34 10° NNE 03:17:30 17° NNE 03:17:30 17° NNE visible
08 Oct 5.7 05:00:03 10° NNW 05:01:58 20° NNW 05:01:58 20° NNW visible
